Regional Weather Roundup
Issued by NWS Portland, ME

Current Version | Previous Version | Text Only | Print | Product List | Glossary Off
Versions: 1 2 3 4 5 6 7 8 9 10 11 12 13 14 15 16 17 18 19 20 21 22 23 24 25 26 27 28 29 30 31 32 33 34 35 36 37 38 39 40 41 42 43 44 45 46 47 48 49 50
000 ASUS41 KGYX 260010 RWRGYX WEATHER ROUNDUP FOR MAINE AND NEW HAMPSHIRE NATIONAL WEATHER SERVICE GRAY ME 800 PM EDT FRI MAY 25 2018 MEZ002-005-006-010-012-015-018-020-021-024-026-027-029-260100- MAINE CITY SKY/WX TMP DP RH WIND PRES REMARKS PORTLAND MOCLDY 80 49 33 SW9 29.67S 6HR MIN TEMP: 80; 6HR MAX TEMP: 88; SANFORD FAIR 80 50 34 W9 29.71R BAR HARBOR FAIR 67 51 56 SW9 29.61R WISCASSET FAIR 80 53 39 W6 29.66R 6HR MIN TEMP: 79; 6HR MAX TEMP: 86; ROCKLAND FAIR 73 55 53 W8 29.63S FRYEBURG FAIR 77 52 41 W7 29.70R 6HR MIN TEMP: 77; 6HR MAX TEMP: 87; LEWISTONAUBURN FAIR 79 53 40 SW8 29.67R AUGUSTA FAIR 79 53 40 W13G22 29.66R 6HR MIN TEMP: 79; 6HR MAX TEMP: 85; WATERVILLE FAIR 77 57 50 W8 29.62R BANGOR MOCLDY 79 55 43 W8 29.59R 6HR MIN TEMP: 79; 6HR MAX TEMP: 86; GREENVILLE N/A 73 56 54 N14 29.64R 6HR MIN TEMP: 73; 6HR MAX TEMP: 83; MILLINOCKET FAIR 78 54 43 W10G20 29.57R 6HR MIN TEMP: 78; 6HR MAX TEMP: 87; HOULTON MOCLDY 62 61 96 SE5 29.56R 6HR MIN TEMP: 62; 6HR MAX TEMP: 83; 6HR PCP: 0.11; PRESQUE ISLE CLOUDY 64 59 83 CALM 29.57R 6HR MIN TEMP: 62; 6HR MAX TEMP: 72; 6HR PCP: TRACE; FRENCHVILLE MOCLDY 68 44 42 NW6 29.55R 6HR MIN TEMP: 68; 6HR MAX TEMP: 75; 6HR PCP: TRACE; CARIBOU MOCLDY 67 57 70 SW3 29.55R 6HR MIN TEMP: 62; 6HR MAX TEMP: 71; 6HR PCP: TRACE; $$ NHZ002-005-008-009-011-012-014-260100- NEW HAMPSHIRE CITY SKY/WX TMP DP RH WIND PRES REMARKS PORTSMOUTH MOCLDY 80 46 30 W3 29.70R ROCHESTER FAIR 81 49 32 VRB3 29.71R 6HR MIN TEMP: 81; 6HR MAX TEMP: 88; NASHUA MOCLDY 80 48 32 W3 29.74S MANCHESTER MOCLDY 84 45 25 VRB5 29.72S 6HR MIN TEMP: 84; 6HR MAX TEMP: 91; CONCORD FAIR 81 47 30 SW6 29.73S 6HR MIN TEMP: 81; 6HR MAX TEMP: 90; LACONIA MOCLDY 78 51 38 W7 29.74R PLYMOUTH CLOUDY 76 50 40 CALM 29.72S BERLIN FAIR 74 55 51 VRB3 29.71R 6HR MIN TEMP: 74; 6HR MAX TEMP: 82; WHITEFIELD FAIR 74 54 49 W8 29.73R 6HR MIN TEMP: 74; 6HR MAX TEMP: 79; JAFFREY FAIR 80 47 31 W7 29.79S 6HR MIN TEMP: 80; 6HR MAX TEMP: 87; KEENE MOCLDY 75 54 47 S3 29.77R LEBANON MOCLDY 78 51 38 W10 29.74R 6HR MIN TEMP: 78; 6HR MAX TEMP: 86; MT WASHINGTON CLOUDY 48 46 93 W67G76 N/A 6HR MIN TEMP: 48; 6HR MAX TEMP: 52; 6HR PCP: TRACE; $$ VTZ005-007-008-260100- VERMONT CITY SKY/WX TMP DP RH WIND PRES REMARKS ST JOHNSBURY N/A 75 53 46 MISG 29.70S MONTPELIER CLOUDY 73 55 53 W14G24 29.81R BURLINGTON LGT RAIN 68 60 75 SE6 29.73F $$ MAZ007-012-024-CTZ003-RIZ002-NYZ038-NYZ072-260100- SOUTHERN NEW ENGLAND AND NY CITY SKY/WX TMP DP RH WIND PRES REMARKS BOSTON MOCLDY 83 49 30 SW13 29.74R WORCESTER FAIR 77 48 35 W12 29.80R NANTUCKET FAIR 57 54 89 SW17 29.85S PROVIDENCE MOCLDY 74 56 53 SW14 29.81R HARTFORD MOCLDY 82 52 35 S8 29.78R ALBANY MOCLDY 80 51 36 W5 29.78R NEW YORK CITY FAIR 86 56 35 SW13 29.82S $$ ANZ081-ANZ082-ANZ150-NHZ014-MEZ023>029-260100- COASTAL MARINE OBSERVATIONS STATION/POSITION TIME TEMP WIND PRES WAVE AIR SEA DIR/SP/G HT/PER (UTC) (F) (DEG/KT/KT) (MB) (FT/S) MOUNT DESERT ROC 0000 55 220/ 25/ 26 1003.3R MATINICUS ROCK 0000 55 230/ 23/ 24 1003.6R ISLE OF SHOALS 0000 83 240/ 16/ 16 1005.4S JEFFREYS LEDGE 2336 53 N/A 2/ 5 CASHES LEDGE BUO 2350 58 51 1004.9R 5/ 6 $$ .............KEY.............. WCI - WIND CHILL TC - TEMPERATURE IN CELSIUS VSB - VISIBILITY IN MILES HX - HEAT INDEX FAIR- INDICATES FEW OR NO CLOUDS BELOW 12,000 FT, WITH NO SIGNIFICANT WEATHER AND/OR OBSTRUCTIONS TO VISIBILITY.

USA.gov is the U.S. government's official web portal to all federal, state and local government web resources and services.